QPF
0.00 0.00 0.00 0.00 0.00 0.00 0.00 0.00 0.00 0.00 0.00 0.00 0.00 0.00 0.00 0.00 0.00 0.00 0.00 0.00 0.00 0.00 0.00 0.00 0.00 0.00 0.00 0.00 0.00 0.01 0.00 0.00 0.00 0.00 0.00 0.00 0.00 0.00 0.00 0.00 0.00 0.00 0.00 0.00
0.00 0.00 0.00 0.00 0.00 0.00 0.00 0.00 0.00 0.00 0.00 0.00 0.00 0.00 0.00 0.00 0.00 0.00 0.00 0.00 0.00 0.00 0.00 0.00 0.00 0.00 0.00 0.00 0.00 0.00 0.00 0.00 0.00 0.00 0.00 0.00 0.00 0.00 0.00 0.00 0.00 0.00 0.00 0.00
0.00 0.00 0.00 0.00 0.00 0.00 0.00 0.00 0.00 0.00 0.00 0.00 0.00 0.00 0.00 0.00 0.00 0.00 0.00 0.00 0.00 0.00 0.00 0.00 0.00 0.00 0.00 0.00 0.00 0.00 0.00 0.00 0.00 0.00 0.00 0.00 0.00 0.00 0.00 0.00 0.00 0.00 0.00 0.00
0.00 0.00 0.00 0.00 0.00 0.00 0.00 0.00 0.00 0.00 0.00 0.00 0.00 0.00 0.00 0.00 0.00 0.00 0.00 0.00 0.00 0.00 0.00 0.00 0.00 0.00 0.00 0.00 0.00 0.00 0.00 0.00 0.00 0.00 0.00 0.00 0.00 0.00 0.00 0.00 0.00 0.00 0.00 0.00
0.00 0.00 0.00 0.00 0.00 0.00 0.00 0.00 0.00 0.00 0.00 0.00 0.00 0.00 0.00 0.00 0.00 0.00 0.00 0.00 0.00 0.00 0.00 0.00 0.00 0.00 0.00 0.00 0.00 0.00 0.00 0.00 0.00 0.00 0.00 0.00 0.00 0.00 0.00 0.00 0.00 0.00 0.00 0.00
0.00 0.00 0.00 0.00 0.00 0.00 0.00 0.00 0.00 0.00 0.00 0.00 0.00 0.00 0.00 0.00 0.00 0.00 0.00 0.00 0.00 0.00 0.00 0.00 0.00 0.00 0.00 0.00 0.00 0.00 0.00 0.00 0.00 0.00 0.00 0.00 0.00 0.00 0.00 0.00 0.00 0.00 0.00 0.00
0.00 0.00 0.00 0.00 0.00 0.00 0.00 0.00 0.00 0.00 0.00 0.00 0.00 0.00 0.00 0.00 0.00 0.00 0.00 0.00 0.00 0.00 0.00 0.00 0.00 0.00 0.00 0.00 0.00 0.00 0.00 0.00 0.00 0.00 0.00 0.00 0.00 0.00 0.00 0.00 0.00 0.00 0.00 0.00
0.00 0.00 0.00 0.00 0.00 0.00 0.00 0.00 0.00 0.00 0.00 0.00 0.00 0.00 0.00 0.00 0.00 0.00 0.00 0.00 0.00 0.00 0.00 0.00 0.00 0.00 0.00 0.00 0.00 0.00 0.00 0.00 0.00 0.00 0.00 0.00 0.00 0.00 0.00 0.00 0.00 0.00 0.00 0.00
0.00 0.00 0.00 0.00 0.00 0.00 0.00 0.00 0.00 0.00 0.00 0.00 0.00 0.00 0.00 0.00 0.00 0.00 0.00 0.00 0.00 0.00 0.00 0.00 0.00 0.00 0.00 0.00 0.00 0.00 0.00 0.00 0.00 0.00 0.00 0.00 0.00 0.00 0.00 0.00 0.00 0.00 0.00 0.00
0.00 0.00 0.00 0.00 0.00 0.00 0.00 0.00 0.00 0.00 0.00 0.00 0.00 0.00 0.00 0.00 0.00 0.00 0.00 0.00 0.00 0.00 0.00 0.00 0.00 0.00 0.00 0.00 0.00 0.00 0.00 0.00 0.00 0.00 0.00 0.00 0.00 0.00 0.00 0.00 0.00 0.00 0.00 0.00
0.00 0.00 0.00 0.00 0.00 0.00 0.00 0.00 0.00 0.00 0.00 0.00 0.00 0.00 0.00 0.00 0.00 0.00 0.00 0.00 0.00 0.00 0.00 0.00 0.00 0.00 0.00 0.00 0.00 0.00 0.00 0.00 0.00 0.00 0.00 0.00 0.00 0.00 0.00 0.00 0.00 0.00 0.00 0.00
0.00 0.00 0.00 0.00 0.00 0.00 0.00 0.00 0.00 0.00 0.00 0.00 0.00 0.00 0.00 0.00 0.00 0.00 0.00 0.00 0.00 0.00 0.00 0.00 0.00 0.00 0.00 0.00 0.00 0.00 0.00 0.00 0.00 0.00 0.00 0.00 0.00 0.00 0.00 0.00 0.00 0.00 0.00 0.00
0.00 0.00 0.00 0.00 0.00 0.00 0.00 0.00 0.00 0.00 0.00 0.00 0.00 0.00 0.00 0.00 0.00 0.00 0.00 0.00 0.00 0.00 0.00 0.00 0.00 0.00 0.00 0.00 0.00 0.00 0.00 0.00 0.00 0.00 0.00 0.00 0.00 0.00 0.00 0.00 0.00 0.00 0.00 0.00
0.00 0.00 0.00 0.00 0.00 0.00 0.00 0.00 0.00 0.00 0.00 0.00 0.00 0.00 0.00 0.00 0.00 0.00 0.00 0.00 0.00 0.00 0.00 0.00 0.00 0.00 0.00 0.00 0.00 0.00 0.00 0.00 0.00 0.00 0.00 0.00 0.00 0.00 0.00 0.00 0.00 0.00 0.00 0.00
0.00 0.00 0.00 0.00 0.00 0.00 0.00 0.00 0.00 0.00 0.00 0.00 0.00 0.00 0.00 0.00 0.00 0.00 0.00 0.00 0.00 0.00 0.00 0.00 0.00 0.00 0.00 0.00 0.00 0.00 0.00 0.00 0.00 0.00 0.00 0.00 0.00 0.00 0.00 0.00 0.00 0.00 0.00 0.00
0.00 0.00 0.00 0.00 0.00 0.00 0.00 0.00 0.00 0.00 0.00 0.00 0.00 0.00 0.00 0.00 0.00 0.00 0.00 0.00 0.00 0.00 0.00 0.00 0.00 0.00 0.00 0.00 0.00 0.00 0.00 0.00 0.00 0.00 0.00 0.00 0.00 0.00 0.00 0.00 0.00 0.00 0.00 0.00
0.00 0.00 0.00 0.00 0.00 0.00 0.00 0.00 0.00 0.00 0.00 0.00 0.00 0.00 0.00 0.00 0.00 0.00 0.00 0.00 0.00 0.00 0.00 0.00 0.00 0.00 0.00 0.00 0.00 0.00 0.00 0.00 0.00 0.00 0.00 0.00 0.00 0.00 0.00 0.00 0.00 0.00 0.00 0.00
0.00 0.00 0.00 0.00 0.00 0.00 0.00 0.00 0.00 0.00 0.00 0.00 0.00 0.00 0.00 0.00 0.00 0.00 0.00 0.00 0.00 0.00 0.00 0.00 0.00 0.00 0.00 0.00 0.00 0.00 0.00 0.00 0.00 0.00 0.00 0.00 0.00 0.00 0.00 0.00 0.00 0.00 0.00 0.00
0.00 0.00 0.01 0.01 0.00 0.00 0.00 0.00 0.00 0.00 0.00 0.00 0.00 0.00 0.00 0.00 0.00 0.00 0.00 0.00 0.00 0.00 0.00 0.00 0.00 0.00 0.00 0.00 0.00 0.00 0.00 0.00 0.00 0.00 0.00 0.00 0.00 0.00 0.00 0.00 0.00 0.00 0.00 0.00
0.00 0.00 0.00 0.01 0.01 0.00 0.00 0.00 0.00 0.00 0.00 0.00 0.00 0.00 0.00 0.00 0.00 0.00 0.00 0.00 0.00 0.00 0.00 0.00 0.00 0.00 0.00 0.00 0.00 0.00 0.00 0.00 0.00 0.00 0.00 0.00 0.00 0.00 0.00 0.00 0.00 0.00 0.00 0.00
0.00 0.00 0.01 0.00 0.02 0.01 0.00 0.00 0.00 0.00 0.00 0.00 0.00 0.00 0.00 0.00 0.00 0.00 0.00 0.00 0.00 0.00 0.00 0.00 0.00 0.00 0.00 0.00 0.00 0.00 0.00 0.00 0.00 0.00 0.00 0.00 0.00 0.00 0.00 0.00 0.00 0.00 0.00 0.00
0.00 0.00 0.00 0.00 0.02 0.01 0.00 0.00 0.00 0.00 0.00 0.00 0.00 0.00 0.00 0.00 0.00 0.00 0.00 0.00 0.00 0.00 0.00 0.00 0.00 0.00 0.00 0.00 0.00 0.00 0.00 0.00 0.00 0.00 0.00 0.00 0.00 0.00 0.00 0.00 0.00 0.00 0.00 0.00
0.00 0.00 0.00 0.00 0.00 0.00 0.00 0.00 0.00 0.00 0.00 0.00 0.00 0.00 0.00 0.00 0.00 0.00 0.00 0.00 0.00 0.00 0.00 0.00 0.00 0.00 0.00 0.00 0.00 0.00 0.00 0.00 0.00 0.00 0.00 0.00 0.00 0.00 0.00 0.00 0.00 0.00 0.00 0.00
0.00 0.00 0.00 0.00 0.00 0.00 0.00 0.00 0.00 0.00 0.00 0.00 0.00 0.00 0.00 0.00 0.00 0.00 0.00 0.00 0.00 0.00 0.00 0.00 0.00 0.00 0.00 0.00 0.00 0.00 0.00 0.00 0.00 0.00 0.00 0.00 0.00 0.00 0.00 0.00 0.00 0.00 0.00 0.00
0.00 0.00 0.00 0.00 0.00 0.00 0.00 0.00 0.00 0.00 0.00 0.00 0.00 0.00 0.00 0.00 0.00 0.00 0.00 0.00 0.00 0.00 0.00 0.00 0.00 0.00 0.00 0.00 0.00 0.00 0.00 0.00 0.00 0.00 0.00 0.00 0.00 0.00 0.00 0.00 0.00 0.00 0.00 0.00
0.00 0.00 0.00 0.00 0.00 0.00 0.00 0.00 0.00 0.00 0.00 0.00 0.00 0.00 0.00 0.00 0.00 0.00 0.00 0.00 0.00 0.00 0.00 0.00 0.00 0.00 0.00 0.00 0.00 0.00 0.00 0.00 0.00 0.00 0.00 0.00 0.00 0.00 0.00 0.00 0.00 0.00 0.00 0.00
MSLP
1019.58 1020.22 1020.92 1021.14 1021.00 1020.94 1021.20 1021.41 1021.35 1020.47 1019.67 1019.62 1018.76 1018.01 1016.89 1016.05 1016.21 1016.28 1016.49 1016.35 1016.23 1015.97 1015.27 1014.89 1014.50 1014.19 1014.07 1013.95 1013.77 1013.45 1013.63 1013.90 1014.08 1014.18 1014.42 1014.52 1014.51 1014.54 1014.61 1014.49 1014.42 1014.52 1014.41 1014.31
1020.13 1020.67 1020.87 1020.77 1020.85 1020.94 1021.00 1021.19 1021.29 1020.42 1020.04 1020.09 1018.83 1017.68 1016.33 1015.82 1015.73 1015.82 1016.07 1016.27 1016.26 1016.01 1015.52 1015.09 1014.85 1014.60 1014.52 1014.46 1014.24 1014.11 1013.98 1014.10 1014.10 1014.28 1014.41 1014.51 1014.65 1014.61 1014.55 1014.51 1014.39 1014.33 1014.32 1014.23
1020.58 1020.83 1020.63 1020.71 1020.69 1020.71 1020.95 1021.28 1021.43 1021.62 1020.68 1019.86 1019.44 1017.85 1016.61 1015.83 1015.63 1015.76 1015.98 1016.36 1016.26 1016.14 1015.91 1015.42 1015.05 1014.87 1014.68 1014.73 1014.58 1014.34 1014.19 1013.92 1014.06 1014.32 1014.46 1014.67 1014.81 1014.79 1014.68 1014.50 1014.38 1014.19 1014.07 1014.04
1020.80 1020.70 1020.72 1020.57 1020.76 1021.05 1021.10 1020.97 1021.41 1021.65 1021.78 1021.31 1020.36 1019.31 1017.23 1016.23 1015.99 1016.00 1016.26 1016.38 1016.24 1016.08 1015.70 1015.50 1015.25 1014.97 1014.86 1014.69 1014.70 1014.58 1014.37 1014.36 1014.33 1014.39 1014.58 1014.86 1014.99 1015.03 1014.75 1014.60 1014.44 1014.25 1013.93 1013.78
1021.15 1020.87 1020.78 1020.87 1021.01 1021.17 1021.11 1021.14 1021.56 1021.73 1022.03 1022.04 1020.95 1020.46 1017.30 1016.65 1016.31 1016.31 1016.37 1016.33 1016.12 1015.86 1015.75 1015.53 1015.26 1014.96 1014.67 1014.53 1014.59 1014.62 1014.47 1014.45 1014.37 1014.39 1014.46 1014.61 1014.67 1014.68 1014.45 1014.36 1014.25 1013.99 1013.70 1013.34
1021.18 1021.14 1021.14 1021.06 1021.03 1021.19 1021.23 1021.39 1021.79 1022.19 1022.55 1022.44 1020.95 1020.36 1017.76 1016.83 1016.17 1016.16 1016.17 1016.25 1016.21 1016.00 1015.83 1015.59 1015.33 1015.05 1014.79 1014.58 1014.55 1014.59 1014.58 1014.38 1014.33 1014.38 1014.32 1014.45 1014.46 1014.33 1014.35 1014.23 1014.16 1013.84 1013.52 1013.31
1021.68 1021.34 1021.14 1021.15 1021.26 1021.36 1021.81 1022.37 1022.87 1023.41 1023.45 1022.52 1021.25 1020.44 1017.51 1016.48 1016.03 1016.04 1016.24 1016.37 1016.37 1016.31 1016.04 1015.84 1015.59 1015.24 1015.03 1014.88 1014.57 1014.40 1014.38 1014.24 1014.05 1014.04 1014.15 1014.14 1014.09 1014.09 1014.07 1013.90 1013.77 1013.58 1013.40 1013.24
1023.21 1021.91 1021.61 1021.49 1021.72 1022.18 1022.60 1023.19 1024.21 1024.95 1024.93 1023.72 1021.66 1020.06 1017.48 1016.60 1016.31 1016.31 1016.33 1016.52 1016.65 1016.66 1016.40 1016.18 1015.93 1015.53 1015.17 1014.86 1014.55 1014.42 1014.26 1014.13 1013.91 1013.83 1013.64 1013.59 1013.60 1013.61 1013.49 1013.39 1013.33 1013.24 1013.07 1012.75
1023.40 1022.59 1021.90 1021.90 1022.07 1022.54 1022.96 1023.52 1024.14 1024.91 1025.32 1024.79 1021.97 1019.47 1017.64 1017.00 1016.75 1016.73 1016.92 1017.01 1017.07 1016.90 1016.54 1016.27 1016.11 1015.79 1015.43 1015.09 1014.66 1014.37 1014.16 1013.93 1013.79 1013.63 1013.43 1013.25 1013.10 1013.12 1013.07 1012.82 1012.73 1012.62 1012.47 1012.39
1023.64 1023.56 1022.56 1022.49 1022.42 1022.68 1022.97 1023.73 1024.51 1025.43 1025.78 1024.91 1022.36 1020.44 1018.31 1017.41 1017.03 1016.95 1017.02 1017.15 1017.11 1017.05 1016.86 1016.57 1016.35 1015.96 1015.65 1015.34 1014.99 1014.56 1014.33 1014.06 1013.66 1013.37 1013.14 1012.95 1012.78 1012.59 1012.40 1012.31 1012.27 1012.09 1011.88 1011.87
1023.63 1024.36 1023.63 1023.23 1022.99 1022.80 1023.43 1023.64 1024.47 1025.36 1025.52 1025.23 1023.57 1020.38 1017.65 1017.13 1016.91 1017.01 1017.09 1017.17 1017.15 1017.06 1016.81 1016.87 1016.63 1016.24 1015.92 1015.57 1015.30 1015.02 1014.59 1014.21 1013.72 1013.29 1012.88 1012.55 1012.16 1011.93 1011.82 1011.76 1011.50 1011.34 1011.21 1011.15
1023.90 1024.76 1024.89 1023.59 1022.96 1022.97 1023.19 1023.59 1024.26 1025.30 1025.30 1024.80 1023.62 1019.99 1017.43 1017.07 1017.00 1017.04 1017.10 1017.10 1016.96 1016.77 1017.01 1016.99 1016.87 1016.55 1016.10 1015.85 1015.40 1015.18 1014.79 1014.41 1013.96 1013.40 1012.97 1012.56 1012.11 1011.63 1011.36 1011.04 1010.71 1010.45 1010.34 1010.19
1023.97 1025.12 1025.29 1023.99 1023.83 1023.23 1023.30 1023.57 1023.96 1024.60 1024.77 1024.21 1023.68 1020.09 1017.95 1017.36 1017.08 1017.00 1017.36 1017.17 1016.73 1016.83 1017.36 1017.45 1017.02 1016.76 1016.37 1015.98 1015.56 1015.10 1014.68 1014.33 1013.90 1013.34 1012.99 1012.50 1012.03 1011.63 1011.20 1010.72 1010.26 1009.92 1009.66 1009.50
1023.73 1024.88 1025.24 1024.80 1023.91 1023.86 1023.82 1023.53 1023.82 1024.36 1024.41 1022.96 1021.75 1019.22 1018.30 1017.46 1017.52 1017.42 1017.56 1017.59 1017.57 1017.45 1017.51 1017.34 1017.18 1016.95 1016.63 1016.30 1015.86 1015.28 1014.63 1014.14 1013.59 1013.15 1012.80 1012.40 1011.87 1011.27 1010.73 1010.23 1009.85 1009.51 1009.20 1009.05
1024.43 1025.18 1025.26 1024.60 1024.13 1023.90 1023.37 1023.30 1022.86 1022.95 1022.14 1022.48 1019.39 1019.87 1018.22 1017.94 1018.13 1017.84 1017.53 1017.58 1017.96 1017.85 1017.69 1017.51 1017.27 1016.93 1016.46 1016.07 1015.67 1015.14 1014.69 1014.07 1013.54 1013.01 1012.53 1012.06 1011.45 1010.82 1010.27 1009.81 1009.28 1008.81 1008.51 1008.26
1024.76 1024.98 1025.31 1024.84 1024.29 1023.54 1022.38 1021.95 1021.24 1021.08 1021.04 1020.68 1020.10 1019.35 1018.56 1018.36 1018.34 1018.16 1018.11 1018.22 1018.29 1018.01 1017.69 1017.39 1017.10 1016.76 1016.39 1015.96 1015.52 1014.89 1014.45 1013.97 1013.55 1013.07 1012.53 1011.85 1011.20 1010.57 1009.99 1009.41 1008.88 1008.41 1007.97 1007.55
1024.79 1025.12 1025.53 1023.94 1023.61 1023.11 1021.67 1019.32 1019.13 1019.62 1019.61 1019.63 1019.56 1019.22 1018.97 1018.78 1018.53 1018.32 1018.34 1018.35 1018.23 1018.01 1017.68 1017.31 1017.00 1016.55 1016.22 1015.86 1015.23 1014.83 1014.25 1013.77 1013.33 1012.79 1012.11 1011.60 1011.06 1010.43 1009.79 1009.22 1008.63 1008.11 1007.61 1007.14
1023.85 1024.88 1025.36 1024.08 1023.86 1021.99 1018.83 1018.29 1017.97 1018.30 1018.64 1018.92 1018.94 1018.96 1018.84 1018.67 1018.37 1018.23 1018.17 1018.14 1018.08 1017.80 1017.38 1017.01 1016.62 1016.31 1016.00 1015.51 1015.08 1014.44 1013.96 1013.49 1012.98 1012.45 1011.85 1011.28 1010.83 1010.29 1009.56 1008.99 1008.38 1007.83 1007.39 1006.83
1022.79 1024.10 1024.41 1023.91 1022.91 1020.11 1018.51 1017.38 1017.49 1017.62 1018.61 1018.80 1018.91 1018.98 1018.75 1018.50 1018.46 1018.08 1017.85 1017.86 1017.81 1017.48 1017.08 1016.67 1016.40 1016.13 1015.75 1015.41 1014.71 1014.20 1013.89 1013.39 1012.93 1012.31 1011.64 1011.11 1010.60 1009.96 1009.33 1008.65 1007.96 1007.40 1006.95 1006.38
1023.00 1023.40 1023.61 1023.31 1022.16 1020.05 1018.09 1017.50 1017.31 1017.40 1018.30 1018.75 1018.73 1018.74 1018.61 1018.58 1018.44 1017.86 1017.56 1017.46 1017.28 1016.88 1016.65 1016.38 1016.06 1015.79 1015.44 1014.84 1014.28 1014.01 1013.53 1013.19 1012.70 1012.02 1011.41 1010.84 1010.29 1009.66 1008.99 1008.25 1007.49 1006.81 1006.32 1005.82
1023.77 1023.99 1023.24 1022.51 1021.24 1019.19 1018.05 1017.66 1017.39 1018.26 1018.97 1018.43 1018.48 1018.47 1018.55 1018.68 1018.41 1017.59 1017.32 1017.02 1016.72 1016.42 1016.11 1015.77 1015.55 1015.33 1014.88 1014.38 1014.08 1013.80 1013.25 1012.75 1012.16 1011.66 1011.02 1010.38 1009.78 1009.22 1008.55 1007.75 1007.00 1006.32 1005.69 1005.07
1023.39 1023.54 1023.27 1022.44 1020.88 1019.30 1018.38 1018.23 1018.60 1018.63 1018.28 1018.29 1018.14 1018.10 1018.33 1018.31 1018.00 1017.63 1017.19 1016.78 1016.53 1016.28 1015.98 1015.60 1015.34 1014.96 1014.39 1014.00 1013.76 1013.37 1012.82 1012.04 1011.56 1011.09 1010.47 1009.74 1008.98 1008.41 1007.85 1007.24 1006.44 1005.78 1005.18 1004.54
1023.35 1022.79 1022.46 1021.83 1019.94 1018.95 1018.58 1018.74 1018.80 1018.67 1018.40 1018.13 1018.17 1018.10 1018.12 1018.08 1017.73 1017.47 1017.12 1016.67 1016.33 1016.04 1015.71 1015.29 1014.99 1014.52 1013.97 1013.45 1013.13 1012.82 1012.00 1011.43 1010.97 1010.52 1009.89 1009.26 1008.49 1007.78 1007.28 1006.66 1005.90 1005.20 1004.50 1003.99
1023.24 1022.54 1022.33 1021.58 1019.46 1019.37 1018.79 1018.34 1018.28 1018.40 1018.30 1018.09 1018.03 1017.91 1017.67 1017.73 1017.57 1017.33 1016.89 1016.51 1016.20 1015.75 1015.32 1014.89 1014.57 1014.20 1013.64 1012.96 1012.53 1012.17 1011.63 1011.00 1010.44 1009.87 1009.28 1008.77 1008.14 1007.21 1006.69 1006.20 1005.66 1004.98 1004.15 1003.40
1023.31 1022.86 1022.15 1020.86 1020.13 1019.94 1018.85 1018.79 1018.50 1018.09 1018.04 1017.93 1017.56 1017.48 1017.47 1017.42 1017.19 1016.96 1016.52 1016.15 1015.68 1015.22 1014.79 1014.54 1014.25 1013.84 1013.28 1012.62 1011.93 1011.42 1010.96 1010.58 1009.96 1009.30 1008.64 1008.03 1007.41 1006.78 1006.07 1005.61 1005.01 1004.39 1003.64 1003.10
1023.11 1022.42 1021.91 1020.09 1019.87 1019.88 1018.26 1018.38 1018.11 1017.83 1017.43 1017.06 1017.12 1017.05 1016.92 1016.89 1016.71 1016.41 1016.02 1015.51 1015.16 1014.74 1014.29 1013.97 1013.56 1013.19 1012.56 1011.98 1011.36 1010.83 1010.28 1009.90 1009.43 1008.75 1008.06 1007.46 1006.82 1006.04 1005.52 1004.89 1003.82 1003.47 1002.79 1002.08
Thickness
5660 5645 5640 5644 5646 5645 5641 5635 5629 5634 5645 5642 5641 5641 5653 5656 5645 5641 5640 5631 5626 5623 5621 5615 5608 5600 5586 5572 5562 5553 5543 5540 5542 5547 5553 5560 5565 5571 5578 5584 5590 5595 5600 5608
5646 5641 5644 5646 5644 5642 5638 5632 5624 5634 5640 5632 5635 5642 5650 5649 5648 5644 5638 5628 5621 5615 5611 5609 5602 5596 5584 5573 5565 5558 5552 5545 5547 5548 5553 5557 5560 5565 5571 5577 5584 5590 5595 5600
5638 5643 5645 5641 5638 5634 5630 5627 5624 5619 5623 5627 5623 5635 5637 5647 5641 5636 5630 5620 5614 5609 5603 5601 5599 5593 5584 5573 5566 5562 5557 5556 5552 5551 5552 5554 5556 5559 5563 5571 5577 5584 5590 5594
5639 5641 5637 5634 5631 5627 5618 5627 5622 5613 5606 5606 5614 5605 5629 5637 5632 5626 5617 5610 5607 5603 5602 5598 5594 5590 5583 5576 5568 5563 5561 5557 5555 5552 5552 5551 5550 5554 5560 5566 5571 5578 5584 5589
5634 5632 5626 5626 5625 5622 5618 5618 5609 5609 5601 5596 5603 5579 5617 5623 5622 5616 5610 5607 5605 5602 5599 5595 5592 5589 5585 5581 5572 5565 5562 5559 5557 5554 5552 5552 5554 5554 5559 5563 5567 5573 5579 5585
5626 5623 5620 5619 5616 5614 5613 5608 5604 5591 5581 5573 5602 5589 5607 5610 5618 5612 5607 5601 5599 5597 5593 5590 5588 5587 5584 5579 5575 5569 5564 5562 5559 5557 5555 5553 5553 5557 5558 5561 5563 5569 5574 5578
5612 5619 5616 5614 5609 5607 5597 5585 5571 5578 5558 5581 5593 5587 5599 5612 5610 5606 5601 5595 5590 5584 5583 5581 5580 5579 5578 5576 5574 5571 5567 5564 5563 5560 5557 5556 5555 5555 5556 5560 5562 5565 5568 5571
5572 5598 5607 5606 5601 5593 5586 5581 5547 5554 5540 5550 5572 5578 5594 5600 5596 5593 5590 5587 5582 5576 5574 5573 5572 5571 5571 5572 5571 5569 5567 5564 5563 5562 5561 5560 5558 5558 5558 5558 5559 5561 5564 5568
5584 5595 5599 5595 5589 5583 5578 5555 5563 5545 5531 5512 5555 5579 5593 5589 5584 5580 5575 5572 5567 5567 5567 5567 5566 5565 5565 5566 5566 5566 5564 5564 5562 5561 5560 5560 5560 5559 5559 5560 5560 5561 5562 5563
5578 5565 5586 5581 5578 5572 5568 5559 5535 5509 5518 5541 5549 5552 5566 5572 5576 5572 5570 5565 5562 5560 5559 5559 5558 5558 5558 5557 5556 5558 5558 5558 5559 5559 5559 5558 5558 5559 5560 5560 5559 5560 5562 5562
5570 5551 5566 5570 5560 5561 5546 5543 5537 5515 5513 5508 5485 5546 5566 5575 5568 5562 5562 5561 5557 5556 5554 5547 5546 5547 5547 5548 5547 5546 5548 5550 5553 5554 5555 5557 5558 5559 5558 5558 5559 5560 5561 5560
5560 5531 5517 5554 5560 5554 5551 5546 5530 5498 5511 5499 5496 5542 5577 5563 5562 5555 5556 5554 5551 5550 5546 5539 5534 5534 5535 5536 5538 5537 5538 5539 5543 5546 5548 5550 5552 5555 5556 5557 5558 5559 5559 5560
5546 5514 5491 5542 5538 5547 5544 5543 5537 5514 5503 5502 5497 5524 5552 5547 5550 5550 5543 5538 5537 5541 5534 5524 5525 5524 5524 5525 5527 5529 5530 5531 5532 5535 5537 5540 5542 5545 5548 5551 5553 5555 5557 5556
5546 5518 5522 5521 5536 5521 5522 5524 5521 5503 5493 5512 5519 5543 5551 5548 5540 5537 5527 5523 5518 5518 5517 5517 5516 5513 5511 5512 5513 5515 5521 5521 5523 5525 5525 5526 5531 5535 5539 5542 5544 5546 5549 5550
5525 5494 5506 5519 5522 5515 5517 5512 5519 5501 5511 5491 5534 5509 5533 5529 5521 5511 5514 5510 5506 5504 5503 5502 5501 5501 5501 5501 5502 5504 5506 5509 5510 5511 5513 5515 5519 5523 5527 5531 5534 5537 5539 5541
5502 5483 5461 5461 5499 5501 5506 5510 5512 5509 5508 5502 5504 5502 5511 5508 5497 5493 5492 5492 5488 5488 5486 5484 5486 5488 5489 5489 5489 5494 5493 5495 5497 5497 5499 5502 5505 5509 5514 5517 5521 5524 5528 5531
5490 5478 5471 5503 5490 5478 5474 5508 5514 5503 5494 5495 5481 5486 5484 5484 5483 5478 5476 5473 5470 5469 5468 5469 5470 5472 5471 5471 5474 5474 5476 5478 5480 5482 5486 5489 5490 5493 5497 5500 5504 5509 5513 5517
5477 5458 5465 5473 5467 5446 5511 5506 5505 5494 5485 5477 5472 5472 5470 5468 5467 5460 5461 5457 5449 5452 5454 5455 5455 5455 5453 5454 5455 5457 5461 5462 5463 5466 5469 5471 5472 5475 5480 5483 5487 5491 5495 5500
5486 5462 5456 5459 5442 5473 5503 5502 5490 5479 5464 5464 5457 5452 5450 5449 5446 5449 5443 5439 5434 5432 5434 5435 5434 5434 5434 5432 5437 5439 5440 5441 5441 5445 5449 5451 5452 5455 5459 5465 5469 5473 5476 5483
5457 5455 5455 5443 5448 5446 5480 5479 5476 5471 5445 5446 5444 5440 5435 5431 5421 5432 5430 5424 5421 5420 5416 5414 5414 5414 5414 5416 5418 5418 5423 5420 5420 5424 5427 5430 5432 5435 5440 5444 5450 5456 5459 5464
5410 5409 5438 5441 5438 5451 5454 5456 5454 5429 5422 5425 5426 5421 5415 5409 5406 5417 5413 5410 5408 5406 5404 5403 5400 5399 5401 5402 5401 5401 5403 5401 5405 5406 5408 5411 5412 5415 5420 5426 5431 5437 5443 5449
5425 5400 5395 5408 5424 5422 5435 5433 5421 5413 5412 5409 5407 5404 5397 5393 5392 5392 5394 5392 5389 5386 5385 5385 5382 5384 5386 5385 5381 5383 5384 5387 5388 5390 5392 5394 5399 5401 5404 5407 5415 5420 5425 5431
5405 5412 5403 5395 5409 5416 5415 5407 5404 5399 5393 5390 5387 5384 5377 5372 5374 5373 5373 5373 5371 5368 5367 5365 5364 5365 5367 5368 5365 5365 5370 5372 5373 5373 5375 5378 5384 5386 5388 5392 5399 5405 5410 5415
5394 5400 5383 5382 5418 5393 5397 5397 5388 5375 5373 5371 5365 5363 5360 5355 5352 5350 5351 5352 5351 5351 5350 5350 5347 5347 5348 5351 5350 5348 5348 5351 5355 5358 5360 5362 5366 5373 5375 5378 5381 5386 5393 5400
5375 5366 5362 5369 5376 5366 5380 5370 5364 5363 5355 5352 5353 5349 5344 5337 5337 5334 5336 5336 5336 5335 5336 5332 5330 5330 5332 5333 5336 5336 5335 5334 5339 5343 5346 5350 5355 5359 5364 5366 5370 5373 5379 5382
5356 5350 5335 5344 5359 5339 5364 5353 5348 5345 5348 5346 5335 5333 5329 5324 5321 5321 5321 5321 5320 5321 5321 5318 5319 5316 5319 5322 5325 5325 5323 5323 5325 5330 5335 5338 5343 5349 5352 5356 5366 5367 5370 5375